Regional Weather Roundup
Issued by NWS

Home | Current Version | Previous Version | Graphics & Text | Print | Product List | Glossary On
Versions: 1 2 3 4 5 6 7 8 9 10 11 12 13 14 15 16 17 18 19 20 21 22 23 24 25 26 27 28 29 30 31 32 33 34 35 36 37 38 39 40 41 42 43 44 45 46 47 48 49 50
000
ASUS43 KDMX 070007
RWRIA

WEATHER ROUNDUP FOR IOWA
NATIONAL WEATHER SERVICE DES MOINES IA
700 PM CDT MON JUL 06 2015

NOTE: "FAIR" INDICATES FEW OR NO CLOUDS BELOW 12,000 FEET WITH NO
SIGNIFICANT WEATHER AND/OR OBSTRUCTIONS TO VISIBILITY.

* - THESE STATIONS ARE NOT NWS STATIONS...THUS NOT UNDER NWS
QUALITY CONTROL.  THEY ALSO DO NOT REPORT WEATHER SUCH
AS PRECIPITATION OR FOG.

IAZ001>003-012>014-020>022-031>034-043>046-070100-
   NORTHWEST IOWA

CITY           SKY/WX    TMP DP  RH WIND       PRES   REMARKS
CARROLL *      SUNNY     72  59  64 N17G26    29.96R HAZE
CHEROKEE *     CLOUDY    71  61  71 N15G22    30.00R HAZE
DENISON *      SUNNY     70  61  73 NE12G18   29.96R HAZE
LE MARS *      SUNNY     72  59  64 N15G23    30.03R HAZE
ORANGE CITY *  MOSUNNY   70  55  60 N12G20    30.03R HAZE
SHELDON *      SUNNY     70  57  64 N17       30.02R
SIOUX CITY     CLOUDY    74  58  57 N20       30.00R HAZE
6HR MIN TEMP:  72; 6HR MAX TEMP:  78; 6HR PCP: TRACE;

SPENCER        CLOUDY    72  58  61 N18G26    29.99R HAZE
6HR MIN TEMP:  71; 6HR MAX TEMP:  75;

STORM LAKE *   MOSUNNY   72  61  68 N13G21    30.00R HAZE
$$

IAZ055>058-069>071-079>083-090>094-070100-
   SOUTHWEST IOWA

CITY           SKY/WX    TMP DP  RH WIND       PRES   REMARKS
ATLANTIC *     PTSUNNY   72  64  78 N12       29.94R HAZE
AUDUBON *      SUNNY     72  63  73 N14       29.97R HAZE
CLARINDA *     CLOUDY    70  64  83 N17G25    29.92R
COUNCIL BLFS * PTSUNNY   72  64  78 N16G25    29.95S
CRESTON *      CLOUDY    70  66  88 N15G22    29.91S
HARLAN  *      MOSUNNY   72  64  78 N16G23    29.98S HAZE
LAMONI         LGT RAIN  73  71  93 N9        29.88F FOG
6HR MIN TEMP:  73; 6HR MAX TEMP:  82; 6HR PCP:  1.15;

RED OAK *      CLOUDY    70  64  83 N15       29.93S
SHENANDOAH *   CLOUDY    70  66  88 N15G21    29.92S
$$

IAZ047>049-059>061-072>074-084-070100-
   CENTRAL IOWA

CITY           SKY/WX    TMP DP  RH WIND       PRES   REMARKS
AMES           CLOUDY    71  63  75 N16G25    29.92R HAZE
6HR MIN TEMP:  70; 6HR MAX TEMP:  76; 6HR PCP:  0.34;

ANKENY *       PTSUNNY   72  70  94 N10G17    29.90R
CHARITON *     CLOUDY    72  70  94 CALM      29.90R
DES MOINES     CLOUDY    73  68  84 N14G20    29.90R
6HR MIN TEMP:  72; 6HR MAX TEMP:  78; 6HR PCP:  0.09;

GRINNELL*      LGT RAIN  72  70  92 NW8       29.89S
KNOXVILLE *    PTSUNNY   73  70  88 NW10      29.87S
MARSHALLTOWN   CLOUDY    71  64  78 N18G26    29.89R
6HR MIN TEMP:  71; 6HR MAX TEMP:  76; 6HR PCP:  0.13;

PELLA *        LGT RAIN  72  72 100 NW8       29.89R
PERRY *        CLOUDY    72  61  68 N15G24    29.93R HAZE
$$

IAZ004>006-015-016-023>025-035-036-070100-
   NORTH CENTRAL IOWA

CITY           SKY/WX    TMP DP  RH WIND       PRES   REMARKS
ALGONA *       MOSUNNY   72  61  68 N12G18    29.98R HAZE
CLARION *      SUNNY     70  59  68 N14       29.95R HAZE
ESTHERVILLE    CLOUDY    69  59  70 N18       29.99R HAZE
6HR MIN TEMP:  68; 6HR MAX TEMP:  72;

FORT DODGE *   PTSUNNY   70  59  68 N8G18     29.96F
MASON CITY     CLOUDY    70  59  68 N13       29.96R HAZE
6HR MIN TEMP:  70; 6HR MAX TEMP:  82; 6HR PCP: TRACE;

FOREST CITY *  SUNNY     68  59  73 N12G17    29.97R HAZE
IOWA FALLS *     N/A     72  59  64 N13G21    29.94R HAZE
$$

IAZ007>011-017>019-026>030-037>042-050>054-066-070100-
   NORTHEAST IOWA

CITY           SKY/WX    TMP DP  RH WIND       PRES   REMARKS
CEDAR RAPIDS   CLOUDY    75  72  90 NW10      29.84R
6HR MIN TEMP:  75; 6HR MAX TEMP:  80; 6HR PCP:  0.06;

CHARLES CITY * SUNNY     68  59  73 N17       29.93R HAZE
CLINTON *      PTSUNNY   73  70  88 S8        29.85S
DECORAH *        N/A    N/A N/A N/A MISG        N/A
DUBUQUE        CLOUDY    77  72  84 SW8       29.83S
6HR MIN TEMP:  74; 6HR MAX TEMP:  78;

MONTICELLO *   CLOUDY    77  73  88 W10G16    29.83R
OELWEIN *      CLOUDY    70  63  78 N17G25    29.90R
WATERLOO       CLOUDY    70  63  78 N16       29.89R HAZE
6HR MIN TEMP:  70; 6HR MAX TEMP:  81; 6HR PCP:  0.26;

$$

IAZ064-065-067-068-078-070100-
   EAST CENTRAL IOWA

CITY           SKY/WX    TMP DP  RH WIND       PRES   REMARKS
DAVENPORT      TSTM      71  70  96 S12       29.86R VSB 3/4
6HR MIN TEMP:  71; 6HR MAX TEMP:  78; 6HR PCP:  1.73;

IOWA CITY      CLOUDY    79  72  79 N12G21    29.84R HX  82
6HR MIN TEMP:  74; 6HR MAX TEMP:  83; 6HR PCP:  0.04;

MT. PLEASANT * RAIN      73  69  87 SW10      29.87R
MUSCATINE *    LGT RAIN  73  70  88 W8        29.85S
QUAD CITIES    TSTM      72  69  90 W9        29.88R FOG
6HR MIN TEMP:  71; 6HR MAX TEMP:  83; 6HR PCP:  0.91;

$$

IAZ062-063-075>077-085>089-095>099-070100-
   SOUTHEAST IOWA

CITY           SKY/WX    TMP DP  RH WIND       PRES   REMARKS
BURLINGTON     LGT RAIN  80  77  90 SW6       29.83R HX  87
6HR MIN TEMP:  80; 6HR MAX TEMP:  87; 6HR PCP:  0.03;

FAIRFIELD *    DRIZZLE   73  72  94 W8        29.85F
FORT MADISON * LGT RAIN  79  75  89 SW8       29.84R HX  82
KEOKUK *       MOSUNNY   81  75  83 SW10      29.81S HX  86
OSKALOOSA *    CLOUDY    73  70  90 NW3       29.87S
CENTERVILLE *  LGT RAIN  72  72 100 NW7       29.89F
OTTUMWA        CLOUDY    74  73  97 NW6       29.85S
6HR MIN TEMP:  71; 6HR MAX TEMP:  81; 6HR PCP:  1.36;

WASHINGTON *   LGT RAIN  73  72  94 W13G21    29.85F VSB 1
$$

ABBREVIATIONS USED IN REMARKS
   TC - TEMPERATURES IN CELSIUS
  WCI - WIND CHILL INDEX
   HX - HEAT INDEX
  VSB - VISIBILITY
$$



USA.gov is the U.S. government's official web portal to all federal, state and local government web resources and services.